Monday, February 25, 2013

Avoca, PA
on Thursday, December 13, 2012

Thursday
Previous Day Next Day
Daily Summary
 ActualAverageRecord
Temperature
Mean Temperature °F 31°F  
Max Temperature 42°F 38°F 60°F (1923)
Min Temperature 21°F 25°F 2°F (1960)
Degree Days
Heating Degree Days 33 34  
Month to date heating degree days 314 410  
Since 1 July heating degree days 1541 1723  
Cooling Degree Days 0 0  
Month to date cooling degree days 0 0  
Year to date cooling degree days 864 580  
Moisture
Dew Point 22°F   
Average Humidity 69    
Maximum Humidity 92    
Minimum Humidity 45    
Precipitation
Precipitation 0.00 in 0.08 in 2.16 in (1983)
Month to date precipitation 0.98 1.25  
Year to date precipitation 35.15 36.83  
Wind
Wind Speed 2 mph   
Max Wind Speed 7 mph   
Max Gust Speed 8 mph   
Visibility 10 miles   
Events     

Key: T is trace of precipitation, MM is missing value
Source: NWS Daily Summary
Time(EST)TemperatureDew PointHumidity Pressure Visibility Wind DirectionWind SpeedGust SpeedPrecipitationEvents Conditions
12:54 AM 27.0°F 21.9°F 81% 30.42 in 10.0 miles East 4.6 mph - N/A   Clear
1:54 AM 27.0°F 21.9°F 81% 30.42 in 10.0 miles East 3.5 mph - N/A   Clear
2:54 AM 25.0°F 21.0°F 85% 30.44 in 10.0 miles Calm Calm - N/A   Clear
3:54 AM 25.0°F 21.0°F 85% 30.43 in 10.0 miles ESE 4.6 mph - N/A   Clear
4:54 AM 21.9°F 19.0°F 89% 30.45 in 9.0 miles Calm Calm - N/A   Clear
5:54 AM 23.0°F 19.9°F 88% 30.44 in 10.0 miles ESE 3.5 mph - N/A   Clear
6:54 AM 21.2°F 19.4°F 93% 30.45 in 9.0 miles Calm Calm - N/A   Clear
7:54 AM 23.0°F 19.0°F 85% 30.49 in 9.0 miles ESE 3.5 mph - N/A   Clear
8:54 AM 27.0°F 21.9°F 81% 30.48 in 9.0 miles Calm Calm - N/A   Clear
9:54 AM 30.9°F 24.1°F 76% 30.48 in 9.0 miles Calm Calm - 0.01 in   Clear
10:54 AM 33.1°F 25.0°F 72% 30.47 in 8.0 miles WNW 3.5 mph - N/A   Clear
11:54 AM 37.0°F 24.1°F 59% 30.45 in 10.0 miles West 4.6 mph - N/A   Clear
12:54 PM 39.0°F 24.1°F 55% 30.42 in 10.0 miles Calm Calm - N/A   Clear
1:54 PM 41.0°F 21.9°F 47% 30.40 in 10.0 miles Calm Calm - N/A   Clear
2:54 PM 41.0°F 21.0°F 45% 30.38 in 10.0 miles West 4.6 mph - N/A   Clear
3:54 PM 39.0°F 21.0°F 49% 30.38 in 10.0 miles WSW 3.5 mph - N/A   Clear
4:54 PM 35.1°F 23.0°F 61% 30.38 in 10.0 miles Calm Calm - N/A   Clear
7:54 PM 30.2°F 21.2°F 69% 30.32 in 10.0 miles ESE 3.5 mph - N/A   Clear
8:54 PM 28.9°F 21.9°F 75% 30.35 in 10.0 miles Calm Calm - N/A   Clear
9:54 PM 30.0°F 21.0°F 69% 30.33 in 10.0 miles East 4.6 mph - N/A   Clear
10:54 PM 28.0°F 21.0°F 75% 30.32 in 10.0 miles ESE 3.5 mph - N/A   Clear
11:54 PM 27.0°F 21.0°F 78% 30.32 in 10.0 miles ESE 4.6 mph - N/A   Clear
Astronomy
Sunrise:07:20 AM (EST) Moon Rise:07:26 AM (EST)12/13
Sunset:04:34 PM (EST) Moon Set:05:14 PM (EST)12/13
Moon Phase
Dec. 13 Dec. 20 Dec. 28 Jan. 04 Jan. 11

Copyright © 2014 The Weather Underground, Inc.
8,